Time,TemperatureF,DewpointF,PressureIn,WindDirection,WindDirectionDegrees,WindSpeedMPH,WindSpeedGustMPH,Humidity,HourlyPrecipIn,Conditions,Clouds,dailyrainin,SoftwareType,DateUTC
2013-01-16 00:03:00,24.0,-99.9,29.98,SW,220,6.0,14.0,-999,-99.99,,,-99.99,,2013-01-16 06:03:00,
2013-01-16 00:12:00,24.0,-99.9,29.98,SW,220,6.0,14.0,-999,-99.99,,,-99.99,,2013-01-16 06:12:00,
2013-01-16 00:22:00,25.0,-99.9,29.97,SW,220,7.0,17.0,-999,-99.99,,,-99.99,,2013-01-16 06:22:00,
2013-01-16 00:33:00,25.0,-99.9,29.97,SW,220,7.0,17.0,-999,-99.99,,,-99.99,,2013-01-16 06:33:00,
2013-01-16 00:43:00,25.0,-99.9,29.97,SW,220,7.0,17.0,-999,-99.99,,,-99.99,,2013-01-16 06:43:00,
2013-01-16 00:53:00,25.0,-99.9,29.97,SW,220,7.0,17.0,-999,-99.99,,,-99.99,,2013-01-16 06:53:00,
2013-01-16 01:02:00,24.0,-99.9,29.94,WSW,240,8.0,15.0,-999,-99.99,,,-99.99,,2013-01-16 07:02:00,
2013-01-16 01:12:00,24.0,-99.9,29.94,WSW,240,8.0,15.0,-999,-99.99,,,-99.99,,2013-01-16 07:12:00,
2013-01-16 01:22:00,24.0,-99.9,29.92,SW,220,6.0,18.0,-999,-99.99,,,-99.99,,2013-01-16 07:22:00,
2013-01-16 01:33:00,24.0,-99.9,29.92,SW,220,6.0,18.0,-999,-99.99,,,-99.99,,2013-01-16 07:33:00,
2013-01-16 01:42:00,24.0,-99.9,29.92,SW,220,6.0,18.0,-999,-99.99,,,-99.99,,2013-01-16 07:42:00,
2013-01-16 01:52:00,24.0,-99.9,29.92,SW,220,6.0,18.0,-999,-99.99,,,-99.99,,2013-01-16 07:52:00,
2013-01-16 02:03:00,24.0,-99.9,29.91,SW,220,8.0,14.0,-999,-99.99,,,-99.99,,2013-01-16 08:03:00,
2013-01-16 02:12:00,24.0,-99.9,29.91,SW,220,8.0,14.0,-999,-99.99,,,-99.99,,2013-01-16 08:12:00,
2013-01-16 02:23:00,24.0,-99.9,29.91,SSW,210,7.0,15.0,-999,-99.99,,,-99.99,,2013-01-16 08:23:00,
2013-01-16 02:33:00,24.0,-99.9,29.91,SSW,210,7.0,15.0,-999,-99.99,,,-99.99,,2013-01-16 08:33:00,
2013-01-16 02:42:00,24.0,-99.9,29.91,SSW,210,7.0,15.0,-999,-99.99,,,-99.99,,2013-01-16 08:42:00,
2013-01-16 02:53:00,24.0,-99.9,29.91,SSW,210,7.0,15.0,-999,-99.99,,,-99.99,,2013-01-16 08:53:00,
2013-01-16 03:02:00,24.0,-99.9,29.88,SW,220,6.0,15.0,-999,-99.99,,,-99.99,,2013-01-16 09:02:00,
2013-01-16 03:12:00,24.0,-99.9,29.88,SW,220,6.0,15.0,-999,-99.99,,,-99.99,,2013-01-16 09:12:00,
2013-01-16 03:22:00,24.0,-99.9,29.87,South,190,2.0,16.0,-999,-99.99,,,-99.99,,2013-01-16 09:22:00,
2013-01-16 03:33:00,24.0,-99.9,29.87,South,190,2.0,16.0,-999,-99.99,,,-99.99,,2013-01-16 09:33:00,
2013-01-16 03:43:00,24.0,-99.9,29.87,South,190,2.0,16.0,-999,-99.99,,,-99.99,,2013-01-16 09:43:00,
2013-01-16 03:53:00,24.0,-99.9,29.87,South,190,2.0,16.0,-999,-99.99,,,-99.99,,2013-01-16 09:53:00,
2013-01-16 04:03:00,24.0,-99.9,29.83,SSW,200,7.0,15.0,-999,-99.99,,,-99.99,,2013-01-16 10:03:00,
2013-01-16 04:12:00,24.0,-99.9,29.83,SSW,200,7.0,15.0,-999,-99.99,,,-99.99,,2013-01-16 10:12:00,
2013-01-16 04:22:00,24.0,-99.9,29.82,South,190,7.0,16.0,-999,-99.99,,,-99.99,,2013-01-16 10:22:00,
2013-01-16 04:33:00,24.0,-99.9,29.82,South,190,7.0,16.0,-999,-99.99,,,-99.99,,2013-01-16 10:33:00,
2013-01-16 04:43:00,24.0,-99.9,29.82,South,190,7.0,16.0,-999,-99.99,,,-99.99,,2013-01-16 10:43:00,
2013-01-16 04:53:00,24.0,-99.9,29.82,South,190,7.0,16.0,-999,-99.99,,,-99.99,,2013-01-16 10:53:00,
2013-01-16 05:02:00,24.0,-99.9,29.79,South,180,7.0,13.0,-999,-99.99,,,-99.99,,2013-01-16 11:02:00,
2013-01-16 05:12:00,24.0,-99.9,29.79,South,180,7.0,13.0,-999,-99.99,,,-99.99,,2013-01-16 11:12:00,
2013-01-16 05:23:00,24.0,-99.9,29.79,South,180,7.0,13.0,-999,-99.99,,,-99.99,,2013-01-16 11:23:00,
2013-01-16 05:33:00,24.0,-99.9,29.76,South,190,7.0,15.0,-999,-99.99,,,-99.99,,2013-01-16 11:33:00,
2013-01-16 05:43:00,24.0,-99.9,29.76,South,190,7.0,15.0,-999,-99.99,,,-99.99,,2013-01-16 11:43:00,
2013-01-16 05:53:00,24.0,-99.9,29.76,South,190,7.0,15.0,-999,-99.99,,,-99.99,,2013-01-16 11:53:00,
2013-01-16 06:03:00,25.0,-99.9,29.73,South,190,6.0,13.0,-999,-99.99,,,-99.99,,2013-01-16 12:03:00,
2013-01-16 06:13:00,25.0,-99.9,29.73,South,190,6.0,13.0,-999,-99.99,,,-99.99,,2013-01-16 12:13:00,
2013-01-16 06:22:00,25.0,-99.9,29.73,South,190,6.0,13.0,-999,-99.99,,,-99.99,,2013-01-16 12:22:00,
2013-01-16 06:33:00,26.0,-99.9,29.71,South,190,6.0,16.0,-999,-99.99,,,-99.99,,2013-01-16 12:33:00,
2013-01-16 06:43:00,26.0,-99.9,29.71,South,190,6.0,16.0,-999,-99.99,,,-99.99,,2013-01-16 12:43:00,
2013-01-16 06:53:00,26.0,-99.9,29.71,South,190,6.0,16.0,-999,-99.99,,,-99.99,,2013-01-16 12:53:00,
2013-01-16 07:03:00,26.0,-99.9,29.70,SSW,200,7.0,15.0,-999,-99.99,,,-99.99,,2013-01-16 13:03:00,
2013-01-16 07:13:00,26.0,-99.9,29.70,SSW,200,7.0,15.0,-999,-99.99,,,-99.99,,2013-01-16 13:13:00,
2013-01-16 07:23:00,26.0,-99.9,29.70,SSW,200,7.0,15.0,-999,-99.99,,,-99.99,,2013-01-16 13:23:00,
2013-01-16 07:33:00,26.0,-99.9,29.70,SSW,200,7.0,15.0,-999,-99.99,,,-99.99,,2013-01-16 13:33:00,
2013-01-16 07:40:00,27.0,-99.9,29.67,SSW,200,10.0,18.0,-999,-99.99,,,-99.99,,2013-01-16 13:40:00,
2013-01-16 07:43:00,27.0,-99.9,29.68,South,190,7.0,20.0,-999,-99.99,,,-99.99,,2013-01-16 13:43:00,
2013-01-16 07:53:00,27.0,-99.9,29.68,South,190,7.0,20.0,-999,-99.99,,,-99.99,,2013-01-16 13:53:00,
2013-01-16 08:03:00,27.0,-99.9,29.67,SSW,200,10.0,18.0,-999,-99.99,,,-99.99,,2013-01-16 14:03:00,
2013-01-16 08:12:00,27.0,-99.9,29.67,SSW,200,10.0,18.0,-999,-99.99,,,-99.99,,2013-01-16 14:12:00,
2013-01-16 08:23:00,27.0,-99.9,29.67,SSW,200,10.0,18.0,-999,-99.99,,,-99.99,,2013-01-16 14:23:00,
2013-01-16 08:33:00,27.0,-99.9,29.67,SSW,200,10.0,18.0,-999,-99.99,,,-99.99,,2013-01-16 14:33:00,
2013-01-16 08:40:00,27.0,-99.9,29.65,SSW,210,13.0,31.0,-999,-99.99,,,-99.99,,2013-01-16 14:40:00,
2013-01-16 09:03:00,27.0,-99.9,29.65,SSW,210,13.0,31.0,-999,-99.99,,,-99.99,,2013-01-16 15:03:00,
2013-01-16 09:12:00,27.0,-99.9,29.65,SSW,210,13.0,31.0,-999,-99.99,,,-99.99,,2013-01-16 15:12:00,
2013-01-16 09:23:00,27.0,-99.9,29.65,SSW,210,13.0,31.0,-999,-99.99,,,-99.99,,2013-01-16 15:23:00,
2013-01-16 09:33:00,27.0,-99.9,29.65,SSW,210,13.0,31.0,-999,-99.99,,,-99.99,,2013-01-16 15:33:00,
2013-01-16 09:40:00,25.0,-99.9,29.65,SW,220,15.0,30.0,-999,-99.99,,,-99.99,,2013-01-16 15:40:00,
2013-01-16 09:53:00,24.0,-99.9,29.65,SSW,210,13.0,30.0,-999,-99.99,,,-99.99,,2013-01-16 15:53:00,
2013-01-16 10:04:00,25.0,-99.9,29.65,SW,220,15.0,30.0,-999,-99.99,,,-99.99,,2013-01-16 16:04:00,
2013-01-16 10:12:00,25.0,-99.9,29.65,SW,220,15.0,30.0,-999,-99.99,,,-99.99,,2013-01-16 16:12:00,
2013-01-16 10:23:00,25.0,-99.9,29.65,SW,220,15.0,30.0,-999,-99.99,,,-99.99,,2013-01-16 16:23:00,
2013-01-16 10:33:00,25.0,-99.9,29.65,SW,220,15.0,30.0,-999,-99.99,,,-99.99,,2013-01-16 16:33:00,
2013-01-16 10:40:00,25.0,-99.9,29.64,SW,230,10.0,24.0,-999,-99.99,,,-99.99,,2013-01-16 16:40:00,
2013-01-16 11:03:00,25.0,-99.9,29.64,SW,230,10.0,24.0,-999,-99.99,,,-99.99,,2013-01-16 17:03:00,
2013-01-16 11:12:00,25.0,-99.9,29.64,SW,230,10.0,24.0,-999,-99.99,,,-99.99,,2013-01-16 17:12:00,
2013-01-16 11:23:00,25.0,-99.9,29.64,SW,230,10.0,24.0,-999,-99.99,,,-99.99,,2013-01-16 17:23:00,
2013-01-16 11:33:00,25.0,-99.9,29.64,SW,230,10.0,24.0,-999,-99.99,,,-99.99,,2013-01-16 17:33:00,
2013-01-16 11:40:00,28.0,-99.9,29.63,WSW,240,11.0,23.0,-999,-99.99,,,-99.99,,2013-01-16 17:40:00,
2013-01-16 12:03:00,28.0,-99.9,29.63,WSW,240,11.0,23.0,-999,-99.99,,,-99.99,,2013-01-16 18:03:00,
2013-01-16 12:13:00,28.0,-99.9,29.63,WSW,240,11.0,23.0,-999,-99.99,,,-99.99,,2013-01-16 18:13:00,
2013-01-16 12:23:00,28.0,-99.9,29.63,WSW,240,11.0,23.0,-999,-99.99,,,-99.99,,2013-01-16 18:23:00,
2013-01-16 12:33:00,28.0,-99.9,29.63,WSW,240,11.0,23.0,-999,-99.99,,,-99.99,,2013-01-16 18:33:00,
2013-01-16 12:40:00,29.0,-99.9,29.63,West,260,9.0,17.0,-999,-99.99,,,-99.99,,2013-01-16 18:40:00,
2013-01-16 13:03:00,29.0,-99.9,29.63,West,260,9.0,17.0,-999,-99.99,,,-99.99,,2013-01-16 19:03:00,
2013-01-16 13:13:00,29.0,-99.9,29.63,West,260,9.0,17.0,-999,-99.99,,,-99.99,,2013-01-16 19:13:00,
2013-01-16 13:23:00,29.0,-99.9,29.63,West,260,9.0,17.0,-999,-99.99,,,-99.99,,2013-01-16 19:23:00,
2013-01-16 13:33:00,29.0,-99.9,29.63,West,260,9.0,17.0,-999,-99.99,,,-99.99,,2013-01-16 19:33:00,
2013-01-16 13:40:00,30.0,-99.9,29.66,West,270,9.0,13.0,-999,-99.99,,,-99.99,,2013-01-16 19:40:00,
2013-01-16 14:03:00,30.0,-99.9,29.66,West,270,9.0,13.0,-999,-99.99,,,-99.99,,2013-01-16 20:03:00,
2013-01-16 14:12:00,30.0,-99.9,29.66,West,270,9.0,13.0,-999,-99.99,,,-99.99,,2013-01-16 20:12:00,
2013-01-16 14:23:00,30.0,-99.9,29.66,West,270,9.0,13.0,-999,-99.99,,,-99.99,,2013-01-16 20:23:00,
2013-01-16 14:33:00,30.0,-99.9,29.66,West,270,9.0,13.0,-999,-99.99,,,-99.99,,2013-01-16 20:33:00,
2013-01-16 14:40:00,30.0,-99.9,29.68,West,280,6.0,11.0,-999,-99.99,,,-99.99,,2013-01-16 20:40:00,
2013-01-16 15:03:00,30.0,-99.9,29.68,West,280,6.0,11.0,-999,-99.99,,,-99.99,,2013-01-16 21:03:00,
2013-01-16 15:13:00,30.0,-99.9,29.68,West,280,6.0,11.0,-999,-99.99,,,-99.99,,2013-01-16 21:13:00,
2013-01-16 15:23:00,30.0,-99.9,29.68,West,280,6.0,11.0,-999,-99.99,,,-99.99,,2013-01-16 21:23:00,
2013-01-16 15:33:00,30.0,-99.9,29.68,West,280,6.0,11.0,-999,-99.99,,,-99.99,,2013-01-16 21:33:00,
2013-01-16 15:40:00,31.0,-99.9,29.73,West,280,6.0,11.0,-999,-99.99,,,-99.99,,2013-01-16 21:40:00,
2013-01-16 16:03:00,31.0,-99.9,29.73,West,280,6.0,11.0,-999,-99.99,,,-99.99,,2013-01-16 22:03:00,
2013-01-16 16:12:00,31.0,-99.9,29.73,West,280,6.0,11.0,-999,-99.99,,,-99.99,,2013-01-16 22:12:00,
2013-01-16 16:23:00,31.0,-99.9,29.73,West,280,6.0,11.0,-999,-99.99,,,-99.99,,2013-01-16 22:23:00,
2013-01-16 16:33:00,31.0,-99.9,29.73,West,280,6.0,11.0,-999,-99.99,,,-99.99,,2013-01-16 22:33:00,
2013-01-16 16:40:00,31.0,-99.9,29.75,West,260,3.0,9.0,-999,-99.99,,,-99.99,,2013-01-16 22:40:00,
2013-01-16 17:03:00,31.0,-99.9,29.75,West,260,3.0,9.0,-999,-99.99,,,-99.99,,2013-01-16 23:03:00,
2013-01-16 17:12:00,31.0,-99.9,29.75,West,260,3.0,9.0,-999,-99.99,,,-99.99,,2013-01-16 23:12:00,
2013-01-16 17:23:00,31.0,-99.9,29.75,West,260,3.0,9.0,-999,-99.99,,,-99.99,,2013-01-16 23:23:00,
2013-01-16 17:33:00,31.0,-99.9,29.75,West,260,3.0,9.0,-999,-99.99,,,-99.99,,2013-01-16 23:33:00,
2013-01-16 18:03:00,31.0,-99.9,29.78,West,280,7.0,11.0,-999,-99.99,,,-99.99,,2013-01-17 00:03:00,
2013-01-16 18:12:00,31.0,-99.9,29.78,West,280,7.0,11.0,-999,-99.99,,,-99.99,,2013-01-17 00:12:00,
2013-01-16 18:23:00,31.0,-99.9,29.78,West,280,7.0,11.0,-999,-99.99,,,-99.99,,2013-01-17 00:23:00,
2013-01-16 18:33:00,31.0,-99.9,29.78,West,280,7.0,11.0,-999,-99.99,,,-99.99,,2013-01-17 00:33:00,
2013-01-16 18:43:00,32.0,-99.9,29.82,WNW,300,11.0,25.0,-999,-99.99,,,-99.99,,2013-01-17 00:43:00,
2013-01-16 18:53:00,32.0,-99.9,29.82,WNW,300,11.0,25.0,-999,-99.99,,,-99.99,,2013-01-17 00:53:00,
2013-01-16 19:03:00,32.0,-99.9,29.83,NNW,330,17.0,24.0,-999,-99.99,,,-99.99,,2013-01-17 01:03:00,
2013-01-16 19:12:00,32.0,-99.9,29.84,NW,320,22.0,30.0,-999,-99.99,,,-99.99,,2013-01-17 01:12:00,
2013-01-16 19:22:00,32.0,-99.9,29.84,NW,320,22.0,30.0,-999,-99.99,,,-99.99,,2013-01-17 01:22:00,
2013-01-16 19:33:00,32.0,-99.9,29.84,NW,320,22.0,30.0,-999,-99.99,,,-99.99,,2013-01-17 01:33:00,
2013-01-16 19:43:00,30.0,-99.9,29.86,NW,310,24.0,-999.0,-999,-99.99,,,-99.99,,2013-01-17 01:43:00,
2013-01-16 19:51:00,29.0,-99.9,29.89,NW,310,25.0,30.0,-999,-99.99,,,-99.99,,2013-01-17 01:51:00,
2013-01-16 19:53:00,30.0,-99.9,29.86,NW,310,24.0,-999.0,-999,-99.99,,,-99.99,,2013-01-17 01:53:00,
2013-01-16 20:02:00,30.0,-99.9,29.88,NW,320,24.0,32.0,-999,-99.99,,,-99.99,,2013-01-17 02:02:00,
2013-01-16 20:12:00,29.0,-99.9,29.89,NW,310,25.0,30.0,-999,-99.99,,,-99.99,,2013-01-17 02:12:00,
2013-01-16 20:22:00,29.0,-99.9,29.89,NW,310,25.0,30.0,-999,-99.99,,,-99.99,,2013-01-17 02:22:00,
2013-01-16 20:33:00,29.0,-99.9,29.89,NW,310,25.0,30.0,-999,-99.99,,,-99.99,,2013-01-17 02:33:00,
2013-01-16 20:43:00,29.0,-99.9,29.89,NW,310,25.0,30.0,-999,-99.99,,,-99.99,,2013-01-17 02:43:00,
2013-01-16 20:52:00,27.0,-99.9,29.93,NW,310,23.0,29.0,-999,-99.99,,,-99.99,,2013-01-17 02:52:00,
2013-01-16 21:03:00,27.0,-99.9,29.92,NW,310,28.0,32.0,-999,-99.99,,,-99.99,,2013-01-17 03:03:00,
2013-01-16 21:12:00,27.0,-99.9,29.92,NW,310,28.0,32.0,-999,-99.99,,,-99.99,,2013-01-17 03:12:00,
2013-01-16 21:22:00,27.0,-99.9,29.93,NW,310,23.0,29.0,-999,-99.99,,,-99.99,,2013-01-17 03:22:00,
2013-01-16 21:33:00,27.0,-99.9,29.93,NW,310,23.0,29.0,-999,-99.99,,,-99.99,,2013-01-17 03:33:00,
2013-01-16 21:43:00,27.0,-99.9,29.93,NW,310,23.0,29.0,-999,-99.99,,,-99.99,,2013-01-17 03:43:00,
2013-01-16 22:03:00,27.0,-99.9,29.96,NNW,330,23.0,30.0,-999,-99.99,,,-99.99,,2013-01-17 04:03:00,
2013-01-16 22:12:00,27.0,-99.9,29.96,NNW,330,23.0,30.0,-999,-99.99,,,-99.99,,2013-01-17 04:12:00,
2013-01-16 22:23:00,27.0,-99.9,29.95,NW,320,24.0,29.0,-999,-99.99,,,-99.99,,2013-01-17 04:23:00,
2013-01-16 22:33:00,27.0,-99.9,29.95,NW,320,24.0,29.0,-999,-99.99,,,-99.99,,2013-01-17 04:33:00,
2013-01-16 22:40:00,26.0,-99.9,29.99,NNW,330,22.0,29.0,-999,-99.99,,,-99.99,,2013-01-17 04:40:00,
2013-01-16 22:43:00,27.0,-99.9,29.95,NW,320,24.0,29.0,-999,-99.99,,,-99.99,,2013-01-17 04:43:00,
2013-01-16 22:53:00,26.0,-99.9,29.98,NW,320,20.0,-999.0,-999,-99.99,,,-99.99,,2013-01-17 04:53:00,
2013-01-16 23:05:00,26.0,-99.9,29.99,NNW,330,22.0,29.0,-999,-99.99,,,-99.99,,2013-01-17 05:05:00,
2013-01-16 23:12:00,26.0,-99.9,29.99,NNW,330,22.0,29.0,-999,-99.99,,,-99.99,,2013-01-17 05:12:00,
2013-01-16 23:22:00,26.0,-99.9,29.99,NNW,330,22.0,29.0,-999,-99.99,,,-99.99,,2013-01-17 05:22:00,
2013-01-16 23:33:00,26.0,-99.9,29.99,NNW,330,22.0,29.0,-999,-99.99,,,-99.99,,2013-01-17 05:33:00,